Tracking 20093 objects as of 16-Dec-2019
HD Live streaming from Space Station
objects crossing your sky now

METEOR 2-17 DEB

Track METEOR 2-17 DEB now!
10-day predictions


NORAD ID: 35371
Int'l Code: 1988-005AF
Perigee: 903.5 km
Apogee: 933.0 km
Inclination: 82.5 °
Period: 103.2 minutes
Semi major axis: 7289 km
RCS: 0.0006 m2 (small)
Launch date: January 30, 1988
Source: Commonwealth of Independent States (former USSR) (CIS)
Launch site: PLESETSK MISSILE AND SPACE COMPLEX (PKMTR)

Note: This is SATELLITE DEBRIS
aabbcc
Your satellite tracking list
Your tracking list is empty




NASA's NSSDC Master Catalog

Two Line Element Set (TLE):
1 35371U 88005AF  19349.79406568 +.00000719 +00000-0 +52250-3 0  9995
2 35371 082.5164 012.0122 0020253 183.6787 176.4234 13.95011823328448
Source of the keplerian elements: AFSPC